• Join FlightAware (Why Join?)
  • Login
  • US Flag 
12:09PM EDT


 

Airport Tracker/Info


-or-


 

Live Flight TrackerFlight Track Log ✈ N717D ✈ 25-Jul-2013 ✈ KMDW - KUNV

Flight Track Log - Related Links

Times and Time Zones

All times are in EDT time to prevent confusion due to time zone crossing. See the N717D flight status page for this flight to view local times or setup timezone preferences in your user account.

Time Position Orientation Groundspeed Altitude Reporting Facility
EDT Latitude Longitude Course Direction KTS MPH feet Rate Location/Type
03:43PM 41.8000 -87.7667 22° Northeast 155 178 2,000  Level Chicago TRACON
03:44PM 41.8250 -87.7531 22° Northeast 237 273 3,400 1,080 Climbing Chicago Center
03:45PM 41.8092 -87.6672 104° East 241 277 4,000 1,020 Climbing Chicago Center
03:46PM 41.8008 -87.5492 95° East 261 300 5,600 2,280 Climbing Chicago Center
03:47PM 41.8325 -87.4525 66° East 281 323 8,800 3,060 Climbing Chicago Center
03:48PM 41.8261 -87.3519 95° East 295 339 12,000 2,700 Climbing Chicago Center
03:49PM 41.7861 -87.2489 117° Southeast 310 357 14,500 2,160 Climbing Chicago Center
03:50PM 41.7692 -87.1258 100° East 333 383 16,500 2,040 Climbing Chicago Center
03:51PM 41.7600 -86.9750 95° East 340 391 18,800 1,800 Climbing Chicago Center
03:52PM 41.7647 -86.8442 87° East 352 405 20,300 1,380 Climbing Chicago Center
03:53PM 41.7658 -86.7083 89° East 364 419 21,700 1,320 Climbing Chicago Center
03:54PM 41.7658 -86.5539 90° East 377 434 23,100 1,200 Climbing Chicago Center
03:55PM 41.7672 -86.4053 89° East 397 457 24,300 900 Climbing Chicago Center
03:56PM 41.7650 -86.2547 91° East 404 465 25,000 540 Climbing Chicago Center
03:57PM 41.7511 -86.0964 97° East 427 491 25,500 960 Climbing Chicago Center
03:58PM 41.7414 -85.9400 95° East 424 488 27,000 1,200 Climbing Chicago Center
03:59PM 41.7289 -85.7853 96° East 420 483 28,000 840 Climbing Chicago Center
04:00PM 41.7175 -85.6258 95° East 426 490 28,800 960 Climbing Chicago Center
04:02PM 41.7022 -85.4422 96° East 434 499 30,000 1,020 Climbing Chicago Center
04:03PM 41.6906 -85.2622 95° East 438 504 31,000 720 Climbing Chicago Center
04:04PM 41.6767 -85.1017 97° East 436 502 31,600 480 Climbing Chicago Center
04:05PM 41.6636 -84.9417 96° East 434 499 32,000 600 Climbing Chicago Center
04:06PM 41.6497 -84.7811 97° East 436 502 32,900 480 Climbing Chicago Center
04:07PM 41.6369 -84.6122 96° East 428 493 33,000  Climbing Cleveland Center
04:08PM 41.6225 -84.4567 97° East 442 509 33,000 120 Level Chicago Center
04:09PM 41.6072 -84.2914 97° East 447 514 33,300 960 Climbing Chicago Center
04:10PM 41.5900 -84.1003 97° East 433 498 35,000 1,440 Climbing Chicago Center
04:11PM 41.5769 -83.9511 97° East 411 473 36,300 1,020 Climbing Chicago Center
04:12PM 41.5639 -83.8275 98° East 407 468 37,000 360 Climbing Cleveland Center
04:13PM 41.5472 -83.6742 98° East 407 468 37,000 360 Level Cleveland Center
04:14PM 41.5344 -83.5208 96° East 412 474 37,800 900 Climbing Cleveland Center
04:15PM 41.5175 -83.3675 98° East 412 474 38,800 600 Climbing Cleveland Center
04:16PM 41.5022 -83.2200 98° East 407 468 39,000 60 Climbing Cleveland Center
04:17PM 41.4908 -83.0836 96° East 407 468 39,000  Level Cleveland Center
04:18PM 41.4772 -82.9306 97° East 413 475 39,000  Level Cleveland Center
04:19PM 41.4597 -82.7581 98° East 413 475 39,000  Level Cleveland Center
04:20PM 41.4439 -82.5997 98° East 428 493 39,000  Level Cleveland Center
04:21PM 41.4258 -82.4442 99° East 428 493 39,000  Level Cleveland Center
04:22PM 41.4094 -82.2803 98° East 428 493 39,000  Level Cleveland Center
04:23PM 41.3931 -82.1247 98° East 428 493 39,000  Level Cleveland Center
04:24PM 41.3803 -81.9806 97° East 428 493 39,000  Level Cleveland Center
04:25PM 41.3656 -81.8197 97° East 428 493 39,000 -300 Level Cleveland Center
04:26PM 41.3461 -81.6647 99° East 428 493 38,500 -960 Descending Cleveland Center
04:27PM 41.3289 -81.5011 98° East 428 493 37,100 -780 Descending Cleveland Center
04:28PM 41.3050 -81.3267 100° East 428 493 37,000 -720 Descending Cleveland Center
04:29PM 41.2853 -81.1633 99° East 434 499 35,700 -1,380 Descending Cleveland Center
04:30PM 41.2672 -81.0142 99° East 427 491 34,300 -1,500 Descending Cleveland Center
04:31PM 41.2508 -80.8567 98° East 421 484 32,700 -1,560 Descending Cleveland Center
04:32PM 41.2303 -80.7047 100° East 421 484 31,200 -1,140 Descending Cleveland Center
04:33PM 41.2136 -80.5500 98° East 426 490 30,500 -1,200 Descending Cleveland Center
04:34PM 41.1928 -80.3900 100° East 426 490 28,900 -1,560 Descending Cleveland Center
04:35PM 41.1756 -80.2494 99° East 426 490 27,400 -1,560 Descending Cleveland Center
04:36PM 41.1583 -80.0950 98° East 426 490 25,800 -1,740 Descending Cleveland Center
04:37PM 41.1347 -79.9297 101° East 420 483 24,000 -900 Descending Cleveland Center
04:38PM 41.1172 -79.7950 100° East 414 476 24,000  Level Cleveland Center
04:39PM 41.1014 -79.6489 98° East 409 471 24,000  Level Cleveland Center
04:40PM 41.0794 -79.5006 101° East 409 471 24,000 -300 Level Cleveland Center
04:41PM 41.0611 -79.3522 99° East 409 471 23,400 -1,440 Descending Cleveland Center
04:42PM 41.0431 -79.2122 100° East 398 458 21,200 -2,220 Descending Cleveland Center
04:43PM 41.0244 -79.0747 100° East 387 445 19,000 -2,160 Descending Cleveland Center
04:44PM 40.9856 -78.8233 102° East 387 445 15,300 -2,520 Descending New York Center
04:45PM 40.9700 -78.7142 101° East 372 428 12,100 -2,160 Descending New York Center
04:46PM 40.9569 -78.5972 98° East 342 394 11,000 -600 Descending New York Center
04:47PM 40.9378 -78.4767 102° East 330 380 11,000  Level New York Center
04:48PM 40.9225 -78.3569 100° East 330 380 11,000 -900 Level New York Center
04:49PM 40.9044 -78.2506 103° East 316 364 9,300 -1,980 Descending New York Center
04:50PM 40.8767 -78.1597 112° Southeast 289 333 7,100 -2,160 Descending New York Center
04:51PM 40.8506 -78.0772 113° Southeast 264 304 5,000 -1,560 Descending New York Center
04:52PM 40.8192 -78.0108 122° Southeast 237 273 4,000 -960 Descending New York Center
04:53PM 40.7975 -77.9564 118° Southeast 202 232 3,200 -900 Descending New York Center
04:54PM 40.8128 -77.9114 66° East 138 159 2,300 -900 Descending New York Center